Terminal Aerodrome Forecast
Issued by NWS

Home | Current Version | Previous Version | Text Only | Print | Product List | Glossary On
Versions: 1 2 3 4 5 6 7 8 9 10 11 12 13 14 15 16 17 18 19 20 21 22 23 24 25
000
FTUS42 KMFL 180902 AAA
TAFOPF
TAF AMD
KOPF 180902Z 1809/1906 11007KT P6SM VCSH SCT030 BKN060
     FM181400 13014G20KT P6SM VCSH SCT025 BKN050
     FM190300 15010KT P6SM VCTS SCT025CB BKN040=

USA.gov is the U.S. government's official web portal to all federal, state and local government web resources and services.